Home > Weather > Fellbach > Past weeks

Flag for Germany Past Weather in Fellbach, Baden-Württemberg, Germany — Yesterday and Last 2 Weeks

Now
66 °F

Scattered clouds.


Feels Like: 66 °F
Forecast: 52 / 70 °F
Wind: 15 mph from Southwest

Location: Stuttgart-Echterdingen

Current Time: May 30, 2016 at 6:30:26 PM

Latest Report: May 30, 2016 at 5:50 PM


Visibility: N/A

Pressure: 29.71 "Hg

Humidity: 64%

Dew Point: 54 °F

Location of FellbachLocation

Past Weather in Fellbach — Graph

°F

Fellbach Temperature Yesterday

Maximum temperature yesterday: 70 °F (at 1:20 PM)
Minimum temperature yesterday: 57 °F (at 11:20 PM)
Average temperature yesterday: 63 °F

High & Low Weather Summary for the Past Weeks

 TemperatureHumidityPressure
High81 °F (May 22, 3:50 PM)100% (May 17, 4:50 AM)30.15 "Hg (May 17, 4:50 AM)
Low43 °F (May 16, 2:20 AM)34% (May 22, 1:50 PM)29.65 "Hg (May 30, 12:50 AM)
Average57 °F76%29.95 "Hg
* Reported May 15 5:20 PM — May 30 5:20 PM, Fellbach, Weather by CustomWeather, © 2016

Note: Actual official high and low records may vary slightly from our data, if they occured in-between our weather recording intervals... More about our weather records

Advertising

Fellbach Weather History for the Previous 24 Hours

Scroll right to see more
 ConditionsComfort  
Time TempWeatherWind HumidityBarometerVisibility
5:20 PM
Mon, May 30
66 °FScattered clouds.15 mph64%29.71 "HgN/A
4:50 PM66 °FScattered clouds.17 mph64%29.71 "HgN/A
4:20 PM66 °FScattered clouds.17 mph64%29.71 "HgN/A
3:50 PM66 °FScattered clouds.14 mph68%29.71 "HgN/A
3:20 PM66 °FBroken clouds.13 mph68%29.71 "HgN/A
2:50 PM66 °FBroken clouds.12 mph68%29.71 "HgN/A
2:20 PM64 °FPartly sunny.12 mph73%29.71 "HgN/A
1:50 PM64 °FLight rain. Broken clouds.10 mph73%29.71 "HgN/A
1:20 PM63 °FLight rain. Partly sunny.12 mph77%29.68 "HgN/A
12:50 PM64 °FPartly sunny.12 mph78%29.68 "HgN/A
12:20 PM63 °FLight rain. Partly sunny.10 mph77%29.68 "HgN/A
11:50 AM63 °FPartly sunny.10 mph77%29.68 "HgN/A
11:20 AM63 °FPartly sunny.12 mph83%29.68 "HgN/A
10:50 AM63 °FPartly sunny.12 mph83%29.68 "HgN/A
10:20 AM61 °FPartly sunny.9 mph83%29.68 "HgN/A
9:50 AM61 °FBroken clouds.12 mph88%29.68 "HgN/A
9:20 AM59 °FLight rain. Partly sunny.10 mph94%29.65 "HgN/A
8:50 AM59 °FLight rain. Partly sunny.9 mph88%29.68 "HgN/A
8:20 AM57 °FLight rain. Broken clouds.9 mph94%29.65 "HgN/A
7:50 AM57 °FLight rain. Broken clouds.8 mph94%29.65 "HgN/A
7:20 AM57 °FLight rain. Broken clouds.8 mph94%29.65 "HgN/A
6:50 AM57 °FLight rain. Broken clouds.8 mph94%29.65 "HgN/A
6:20 AM57 °FRain. Partly cloudy.8 mph94%29.65 "Hg5 mi
5:50 AM57 °FLight rain. Partly cloudy.7 mph94%29.65 "Hg5 mi
5:20 AM57 °FRain. Passing clouds.8 mph94%29.65 "Hg4 mi
4:50 AM57 °FRain. Passing clouds.7 mph94%29.65 "Hg4 mi
4:20 AM57 °FRain. Partly cloudy.7 mph94%29.68 "Hg4 mi
3:50 AM57 °FRain. Partly cloudy.8 mph94%29.65 "Hg5 mi
3:20 AM57 °FRain. Partly cloudy.8 mph94%29.65 "Hg5 mi
2:50 AM57 °FRain. Passing clouds.7 mph100%29.65 "Hg5 mi
2:20 AM57 °FLight rain. Passing clouds.5 mph94%29.65 "HgN/A
1:50 AM57 °FLight rain. Partly cloudy.5 mph94%29.65 "HgN/A
1:20 AM57 °FLight rain. Passing clouds.6 mph100%29.65 "HgN/A
12:50 AM57 °FLight rain. Passing clouds.6 mph100%29.65 "HgN/A
12:20 AM57 °FLight rain. Passing clouds.5 mph100%29.68 "HgN/A
11:50 PM
Sun, May 29
59 °FLight rain. Passing clouds.5 mph94%29.68 "HgN/A
11:20 PM57 °FRain. Passing clouds.8 mph100%29.68 "Hg5 mi
10:50 PM59 °FRain. Passing clouds.8 mph94%29.68 "Hg4 mi
10:20 PM59 °FThundershowers. Partly cloudy.8 mph94%29.68 "Hg4 mi
9:50 PM59 °FThunderstorms. Partly sunny.9 mph94%29.68 "Hg4 mi
9:20 PM59 °FThunderstorms. Partly sunny.5 mph94%29.71 "Hg3 mi
8:50 PM59 °FThundershowers. Partly sunny.5 mph94%29.71 "Hg3 mi
8:20 PM59 °FRain. Partly sunny.5 mph94%29.71 "Hg4 mi
7:50 PM59 °FRain. Partly sunny.3 mph94%29.71 "Hg5 mi
7:20 PM59 °FThundershowers. Broken clouds.3 mph94%29.68 "Hg4 mi
6:50 PM59 °FRain. Broken clouds.13 mph94%29.68 "Hg6 mi
6:20 PM59 °FThundershowers. Broken clouds.13 mph94%29.68 "HgN/A
Weather by CustomWeather, © 2016

See weather overviewHow to use our weather pages